Overview Statistics Trail Chart Weather Telemetry Raw packets
 

This is the latest recevied weather packets stored in our database for station/object 1NW106. If no packets are shown the sender has not sent any weather packets the latest 10 day(s).

<< 41 42 43 44 45 >>
Time Temp. Humidity Pressure Rain* Wind** Luminosity Snow
1787744368 25.56° C 96% 1004.3 hPa 14.73 mm - - -
1787743768 25.56° C 96% 1004.2 hPa 14.73 mm - - -
1787743168 25.56° C 96% 1004.3 hPa 14.73 mm - - -
1787742568 25.56° C 95% 1004.2 hPa 14.73 mm - - -
1787741968 26.11° C 95% 1004.3 hPa 14.73 mm - - -
1787741368 26.11° C 94% 1004.4 hPa 14.73 mm - - -
1787740768 26.11° C 93% 1005 hPa 14.73 mm - - -
1787740168 26.67° C 86% 1005.4 hPa 14.73 mm - - -
1787739568 27.22° C 82% 1005.3 hPa 14.73 mm - - -
1787738968 27.22° C 83% 1005.3 hPa 14.73 mm - - -
1787738368 27.78° C 80% 1005 hPa 14.73 mm - - -
1787737768 28.89° C 82% 1004.9 hPa 14.73 mm - - -
1787737168 29.44° C 81% 1005.1 hPa 14.73 mm - - -
1787736568 30.56° C 78% 1005.2 hPa 14.73 mm - - -
1787735968 30.56° C 77% 1005.3 hPa 14.73 mm - - -
1787735368 30° C 79% 1004.6 hPa 14.73 mm - - -
1787734768 29.44° C 88% 1004.8 hPa 14.73 mm - - -
1787734168 29.44° C 86% 1005 hPa 14.73 mm - - -
1787733568 29.44° C 86% 1005.2 hPa 14.73 mm - - -
1787732968 29.44° C 84% 1004.9 hPa 14.73 mm - - -
1787732368 28.89° C 89% 1005.3 hPa 14.73 mm - - -
1787731768 28.89° C 85% 1005.3 hPa 14.73 mm - - -
1787731168 29.44° C 84% 1005.4 hPa 14.73 mm - - -
1787730568 30° C 80% 1005.9 hPa 14.73 mm - - -
1787729968 30° C 80% 1006 hPa 14.73 mm - - -

* Rain latest hour (hover to see other rain measurements)
** Current wind speed in m/s (hover to see current wind gust speed)